User: anonymous   Login
Location: ???????????
(38.2661°N, 23.2350°E)
Time: 12:04:46
(UTC+00:00)
Language:

SJ-6B - Orbit

View from above orbital plane
View from above orbital plane
View from above satellite
View from above satellite

Ground track
Ground track

The orbit data is extracted from the following two-line orbital elements,

1 28415U 04035C   24057.10429814  .00007807  00000-0  42321-3 0  9996
2 28415  97.4388  93.3129 0045545  53.3129 307.2274 15.13950411 66999
Epoch (UTC): 26 February 2024 02:30:11
Eccentricity: 0.0045545
inclination: 97.4388°
perigee height: 493 km
apogee height: 555 km
right ascension of ascending node: 93.3129°
argument of perigee: 53.3129°
revolutions per day: 15.13950411
mean anomaly at epoch: 307.2274°
orbit number at epoch: 6699

The dashed part of the orbit path shows where the satellite is in the earth's shadow,  

DLR